This is the latest recevied weather packets stored in our database for station/object W4GAP. If no packets are shown the sender has not sent any weather packets the latest 10 day(s).
| Time | Temp. | Humidity | Pressure | Rain* | Wind** | Luminosity | Snow |
|---|---|---|---|---|---|---|---|
| 1778099792 | 26.11° C | 66% | 1009.8 hPa | 0 mm | - | 24 W/m² | - |
| 1778099488 | 26.11° C | 66% | 1009.6 hPa | 0 mm | - | 48 W/m² | - |
| 1778099186 | 26.11° C | 67% | 1009.7 hPa | 0 mm | - | 79 W/m² | - |
| 1778098882 | 26.11° C | 66% | 1010 hPa | 0 mm | - | 43 W/m² | - |
| 1778098579 | 26.11° C | 66% | 1009.9 hPa | 0 mm | - | 28 W/m² | - |
| 1778098275 | 26.11° C | 66% | 1009.8 hPa | 0 mm | - | 38 W/m² | - |
| 1778097972 | 26.67° C | 65% | 1010 hPa | 0 mm | - | 52 W/m² | - |
| 1778097669 | 26.67° C | 64% | 1009.8 hPa | 0 mm | - | 65 W/m² | - |
| 1778097365 | 26.67° C | 65% | 1010.1 hPa | 0 mm | - | 112 W/m² | - |
| 1778097062 | 26.67° C | 64% | 1010.2 hPa | 0 mm | - | 64 W/m² | - |
| 1778096760 | 26.67° C | 64% | 1010.6 hPa | 0 mm | - | 89 W/m² | - |
| 1778096455 | 26.67° C | 65% | 1010.7 hPa | 0 mm | - | 111 W/m² | - |
| 1778096154 | 26.11° C | 66% | 1010.5 hPa | 0 mm | - | 77 W/m² | - |
| 1778095851 | 26.11° C | 66% | 1010.6 hPa | 0 mm | - | 62 W/m² | - |
| 1778095547 | 26.11° C | 66% | 1010.8 hPa | 0 mm | - | 197 W/m² | - |
| 1778095243 | 25.56° C | 67% | 1010.8 hPa | 0 mm | - | 51 W/m² | - |
| 1778094940 | 25.56° C | 68% | 1010.9 hPa | 0 mm | - | 108 W/m² | - |
| 1778094636 | 25.56° C | 67% | 1011.2 hPa | 0 mm | - | 48 W/m² | - |
| 1778094333 | 25.56° C | 66% | 1011.2 hPa | 0 mm | - | 55 W/m² | - |
| 1778094030 | 25.56° C | 66% | 1011.2 hPa | 0 mm | - | 40 W/m² | - |
| 1778093728 | 25.56° C | 65% | 1011.5 hPa | 0 mm | - | 49 W/m² | - |
| 1778093424 | 26.11° C | 65% | 1011.4 hPa | 0 mm | - | 58 W/m² | - |
| 1778093122 | 26.11° C | 65% | 1011.3 hPa | 0 mm | - | 72 W/m² | - |
| 1778092819 | 26.11° C | 65% | 1011.4 hPa | 0 mm | - | 132 W/m² | - |
| 1778092514 | 26.11° C | 65% | 1011.6 hPa | 0 mm | - | 317 W/m² | - |
* Rain latest hour (hover to see other rain measurements)
** Current wind speed in m/s (hover to see current wind gust speed)